When you browse on this site, cookies collect data to enhance your experience and personalize the content and advertising you see.
Visit our Privacy Policy to learn more. By continuing to use the site, you agree to this use of cookies and data.
  • In Sweden
  • List of Countries
  • For 7 days
  • Water Temperature
  • Weather Map
  • Weather Widgets
  • user-avatar
    Login

    Hourly Weather Reczyn

    Today, 22 February, Saturday

    Time Temperature Precipitation Wind Pressure Humidity
    00:00 0°C° 0 mm 4 mps 758 mmHg 88%
    01:00 -1°C° 0 mm 4 mps 758 mmHg 88%
    02:00 -1°C° 0 mm 4 mps 758 mmHg 89%
    03:00 -1°C° 0 mm 4 mps 757 mmHg 89%
    04:00 -1°C° 0 mm 5 mps 757 mmHg 89%
    05:00 -1°C° 0 mm 5 mps 757 mmHg 87%
    06:00 -1°C° 0 mm 5 mps 757 mmHg 85%
    07:00 -1°C° 0 mm 5 mps 757 mmHg 83%
    08:00 +1°C° 0 mm 6 mps 756 mmHg 77%
    09:00 +2°C° 0 mm 7 mps 755 mmHg 71%
    10:00 +2°C° 0 mm 8 mps 754 mmHg 65%
    11:00 +3°C° 0 mm 9 mps 754 mmHg 63%
    12:00 +5°C° 0 mm 9 mps 753 mmHg 61%
    13:00 +5°C° 0 mm 10 mps 752 mmHg 59%
    14:00 +6°C° 0 mm 9 mps 751 mmHg 58%
    15:00 +6°C° 0 mm 9 mps 750 mmHg 56%
    16:00 +6°C° 0 mm 8 mps 749 mmHg 54%
    17:00 +6°C° 0 mm 9 mps 749 mmHg 56%
    18:00 +6°C° 0 mm 9 mps 748 mmHg 58%
    19:00 +6°C° 0 mm 9 mps 748 mmHg 60%
    20:00 +6°C° 0 mm 9 mps 748 mmHg 60%
    21:00 +6°C° 0 mm 10 mps 748 mmHg 61%
    22:00 +6°C° 0 mm 10 mps 747 mmHg 62%
    23:00 +5°C° 0.6 mm 9 mps 747 mmHg 69%

    Tomorrow, 23 February, Sunday

    Time Temperature Precipitation Wind Pressure Humidity
    00:00 +3°C° 0.6 mm 9 mps 748 mmHg 76%
    01:00 +2°C° 0.6 mm 8 mps 748 mmHg 84%
    02:00 +2°C° 0.1 mm 8 mps 748 mmHg 80%
    03:00 +2°C° 0.1 mm 8 mps 748 mmHg 76%
    04:00 +2°C° 0.1 mm 8 mps 748 mmHg 72%
    05:00 +2°C° 0 mm 8 mps 748 mmHg 70%
    06:00 +1°C° 0 mm 8 mps 748 mmHg 69%
    07:00 +2°C° 0 mm 7 mps 749 mmHg 68%
    08:00 +1°C° 0 mm 8 mps 749 mmHg 68%
    09:00 +2°C° 0 mm 9 mps 748 mmHg 67%
    10:00 +2°C° 0 mm 9 mps 748 mmHg 67%
    11:00 +2°C° 0.1 mm 9 mps 748 mmHg 63%
    12:00 +3°C° 0.1 mm 9 mps 748 mmHg 60%
    13:00 +4°C° 0.1 mm 8 mps 747 mmHg 57%
    14:00 +3°C° 0.1 mm 7 mps 746 mmHg 67%
    15:00 +3°C° 0.1 mm 6 mps 745 mmHg 78%
    16:00 +2°C° 0.1 mm 5 mps 744 mmHg 88%
    17:00 +3°C° 0.8 mm 3 mps 743 mmHg 91%
    18:00 +3°C° 0.8 mm 2 mps 742 mmHg 93%
    19:00 +3°C° 0.8 mm 0 mps 740 mmHg 96%
    20:00 +3°C° 1 mm 2 mps 740 mmHg 96%
    21:00 +1°C° 1 mm 3 mps 740 mmHg 96%
    22:00 0°C° 1 mm 4 mps 739 mmHg 95%
    23:00 0°C° 0.4 mm 5 mps 741 mmHg 95%

    Day after tomorrow, 24 February, Monday

    Time Temperature Precipitation Wind Pressure Humidity
    00:00 -1°C° 0.4 mm 6 mps 742 mmHg 94%
    01:00 -1°C° 0.4 mm 7 mps 744 mmHg 94%
    02:00 -1°C° 0.1 mm 7 mps 745 mmHg 87%
    03:00 -1°C° 0.1 mm 7 mps 745 mmHg 81%
    04:00 -1°C° 0.1 mm 7 mps 746 mmHg 75%
    05:00 -1°C° 0 mm 7 mps 747 mmHg 77%
    06:00 -1°C° 0 mm 7 mps 749 mmHg 78%
    07:00 -1°C° 0 mm 7 mps 750 mmHg 80%
    08:00 0°C° 0 mm 7 mps 750 mmHg 78%
    09:00 0°C° 0 mm 7 mps 751 mmHg 75%
    10:00 +2°C° 0 mm 7 mps 752 mmHg 73%
    11:00 +2°C° 0 mm 7 mps 752 mmHg 73%
    12:00 +2°C° 0 mm 7 mps 752 mmHg 72%
    13:00 +2°C° 0 mm 7 mps 752 mmHg 72%
    14:00 +2°C° 0 mm 6 mps 752 mmHg 74%
    15:00 +2°C° 0 mm 6 mps 751 mmHg 76%
    16:00 +2°C° 0 mm 5 mps 751 mmHg 78%
    17:00 +1°C° 0 mm 4 mps 751 mmHg 79%
    18:00 +1°C° 0 mm 4 mps 750 mmHg 81%
    19:00 +2°C° 0 mm 3 mps 750 mmHg 82%
    20:00 +2°C° 0 mm 3 mps 749 mmHg 82%
    21:00 +2°C° 0 mm 3 mps 749 mmHg 82%
    22:00 +2°C° 0 mm 3 mps 748 mmHg 81%
    23:00 +1°C° 0 mm 4 mps 747 mmHg 81%

    25 February, Tuesday

    Time Temperature Precipitation Wind Pressure Humidity
    00:00 +1°C° 0 mm 5 mps 746 mmHg 81%
    01:00 +1°C° 0 mm 5 mps 745 mmHg 81%
    02:00 +2°C° 0.8 mm 6 mps 743 mmHg 84%
    03:00 +3°C° 0.8 mm 6 mps 742 mmHg 87%
    04:00 +3°C° 0.8 mm 6 mps 741 mmHg 90%
    05:00 +4°C° 0.4 mm 7 mps 741 mmHg 90%
    06:00 +5°C° 0.4 mm 7 mps 741 mmHg 90%
    07:00 +6°C° 0.4 mm 7 mps 740 mmHg 90%
    08:00 +6°C° 0 mm 7 mps 740 mmHg 86%
    09:00 +7°C° 0 mm 8 mps 740 mmHg 82%
    10:00 +9°C° 0 mm 8 mps 740 mmHg 77%
    11:00 +9°C° 0.1 mm 8 mps 740 mmHg 73%
    12:00 +10°C° 0.1 mm 8 mps 740 mmHg 68%
    13:00 +10°C° 0.1 mm 8 mps 739 mmHg 63%
    14:00 +10°C° 0.1 mm 7 mps 739 mmHg 66%
    15:00 +9°C° 0.1 mm 6 mps 738 mmHg 68%
    16:00 +9°C° 0.1 mm 6 mps 737 mmHg 71%
    17:00 +8°C° 1.1 mm 6 mps 737 mmHg 75%
    18:00 +6°C° 1.1 mm 7 mps 737 mmHg 80%
    19:00 +5°C° 1.1 mm 7 mps 737 mmHg 84%
    20:00 +4°C° 0.3 mm 6 mps 737 mmHg 80%
    21:00 +5°C° 0.3 mm 5 mps 737 mmHg 76%
    22:00 +4°C° 0.3 mm 4 mps 737 mmHg 72%
    23:00 +4°C° 0 mm 4 mps 737 mmHg 72%

    26 February, Wednesday

    Time Temperature Precipitation Wind Pressure Humidity
    00:00 +2°C° 0 mm 5 mps 738 mmHg 72%
    01:00 +2°C° 0 mm 5 mps 738 mmHg 72%
    02:00 +1°C° 0 mm 5 mps 737 mmHg 75%
    03:00 +1°C° 0 mm 4 mps 737 mmHg 78%
    04:00 0°C° 0 mm 4 mps 737 mmHg 81%
    05:00 0°C° 0 mm 4 mps 737 mmHg 81%
    06:00 0°C° 0 mm 5 mps 737 mmHg 81%
    07:00 0°C° 0 mm 5 mps 737 mmHg 82%
    08:00 0°C° 0.1 mm 5 mps 737 mmHg 82%
    09:00 +1°C° 0.1 mm 5 mps 737 mmHg 82%
    10:00 +2°C° 0.1 mm 5 mps 737 mmHg 82%
    11:00 +2°C° 0 mm 5 mps 737 mmHg 79%
    12:00 +2°C° 0 mm 5 mps 736 mmHg 77%
    13:00 +4°C° 0 mm 4 mps 736 mmHg 74%
    14:00 +4°C° 0 mm 4 mps 736 mmHg 73%
    15:00 +4°C° 0 mm 3 mps 736 mmHg 73%
    16:00 +5°C° 0 mm 2 mps 736 mmHg 72%
    17:00 +4°C° 0.2 mm 2 mps 736 mmHg 77%
    18:00 +4°C° 0.2 mm 2 mps 736 mmHg 83%
    19:00 +2°C° 0.2 mm 3 mps 737 mmHg 88%
    20:00 +2°C° 0.8 mm 3 mps 737 mmHg 90%
    21:00 +1°C° 0.8 mm 3 mps 737 mmHg 92%
    22:00 +1°C° 0.8 mm 3 mps 738 mmHg 94%
    23:00 0°C° 0.2 mm 4 mps 738 mmHg 92%

    27 February, Thursday

    Time Temperature Precipitation Wind Pressure Humidity
    00:00 0°C° 0.2 mm 4 mps 738 mmHg 91%
    01:00 0°C° 0.2 mm 4 mps 739 mmHg 90%
    02:00 0°C° 0 mm 4 mps 739 mmHg 90%
    03:00 -1°C° 0 mm 4 mps 740 mmHg 91%
    04:00 -1°C° 0 mm 4 mps 741 mmHg 92%
    05:00 -2°C° 0 mm 4 mps 741 mmHg 91%
    06:00 -2°C° 0 mm 4 mps 742 mmHg 91%
    07:00 -2°C° 0 mm 5 mps 742 mmHg 90%
    08:00 -2°C° 0.1 mm 5 mps 743 mmHg 90%
    09:00 -1°C° 0.1 mm 5 mps 744 mmHg 89%
    10:00 -1°C° 0.1 mm 5 mps 744 mmHg 88%
    11:00 0°C° 0.1 mm 5 mps 745 mmHg 81%
    12:00 +1°C° 0.1 mm 6 mps 745 mmHg 74%
    13:00 +1°C° 0.1 mm 6 mps 746 mmHg 67%
    14:00 +1°C° 0.1 mm 6 mps 746 mmHg 66%
    15:00 +1°C° 0.1 mm 6 mps 747 mmHg 66%
    16:00 +1°C° 0.1 mm 6 mps 747 mmHg 66%
    17:00 0°C° 0 mm 5 mps 748 mmHg 70%
    18:00 -1°C° 0 mm 4 mps 748 mmHg 73%
    19:00 -1°C° 0 mm 3 mps 748 mmHg 77%
    20:00 -1°C° 0 mm 3 mps 749 mmHg 78%
    21:00 -1°C° 0 mm 2 mps 749 mmHg 80%
    22:00 -2°C° 0 mm 2 mps 749 mmHg 81%
    23:00 -1°C° 0 mm 2 mps 749 mmHg 82%
    Show more